Regional Weather Roundup
Issued by NWS Albany, NY

Home | Current Version | Previous Version | Text Only | Print | Product List | Glossary Off
Versions: 1 2 3 4 5 6 7 8 9 10 11 12 13 14 15 16 17 18 19 20 21 22 23 24 25 26 27

000
ASUS41 KALY 071510
RWRALY

NEW YORK STATE HOURLY WEATHER ROUNDUP
NATIONAL WEATHER SERVICE ALBANY NY
1000 AM EST WED DEC 07 2016

NOTE: "FAIR" INDICATES FEW OR NO CLOUDS BELOW 12,000 FEET WITH NO
SIGNIFICANT WEATHER AND/OR NO OBSTRUCTIONS TO VISIBILITY.

NYZ032-033-038>043-046>054-057>066-NYZ062>081-082-084-071600-
EAST


CITY           SKY/WX    TMP DP  RH WIND       PRES   REMARKS
ALBANY         NOT AVBL
GLENS FALLS    NOT AVBL
POUGHKEEPSIE   NOT AVBL
NEWBURGH       CLOUDY    36  36 100 VRB5      30.01R FOG     WCI  32
WHITE PLAINS   CLOUDY    39  35  86 W3        29.99R FOG
NEW YORK CITY  CLOUDY    45  39  81 N7        30.00R
CENTRAL PARK   CLOUDY    41  38  89 N5        30.02S FOG
$$

NYZ005>009-017-018-044>046-055-056-071600-
CENTRAL


CITY           SKY/WX    TMP DP  RH WIND       PRES   REMARKS
SYRACUSE       NOT AVBL
ROME           NOT AVBL
ELMIRA         NOT AVBL
BINGHAMTON     NOT AVBL
$$

NYZ026>034-041>043-087-071600-
NORTH


CITY           SKY/WX    TMP DP  RH WIND       PRES   REMARKS
WATERTOWN      NOT AVBL
FORT DRUM      NOT AVBL
MASSENA        NOT AVBL
PLATTSBURGH    NOT AVBL
$$

NYZ001>004-010>016-019>021-085-071600-
WEST


CITY           SKY/WX    TMP DP  RH WIND       PRES   REMARKS
BUFFALO        NOT AVBL
ROCHESTER      NOT AVBL
$$

             KEY
       WCI = WIND CHILL INDEX
       VSB = VISIBILITY
       HX  = HEAT INDEX
$$




USA.gov is the U.S. government's official web portal to all federal, state and local government web resources and services.